Regional Weather Roundup
Issued by NWS

Home | Current Version | Previous Version | Text Only | Print | Product List | Glossary On
Versions: 1 2 3 4 5 6 7 8 9 10 11 12 13 14 15 16 17 18 19 20 21 22 23 24 25 26 27
000
ASPQ40 PGUM 181012
RWRPQ
WEATHER ROUNDUP FOR THE MARIANAS AND MICRONESIA
NATIONAL WEATHER SERVICE TIYAN GU
800 PM CHST MON DEC 18 2017

GUZ001>004-181100-
MARIANA ISLANDS-

CITY           SKY/WX    TMP DP  RH WIND       PRES   REMARKS
GUAM AIRPORT   CLEAR     81  79  94 E12       29.87R
ANDERSEN AFB   PTCLDY    81  77  89 E17       29.87R
ROTA AIRPORT   MOCLDY    79  75  89 E16G25    29.88R
TINIAN AP      MOCLDY    82  75  78 E21       29.88R
SAIPAN AP      PTCLDY    82  75  78 E20       29.89R

$$

PMZ161-181100-
REPUBLIC OF PALAU-

CITY           SKY/WX    TMP DP  RH WIND       PRES   REMARKS
KOROR AP       CLOUDY    79  75  89 CALM      29.77R
KOROR WSO      CLOUDY    81  75  83 N3        29.78R

$$

PMZ171>174-181100-
FEDERATED STATES OF MICRONESIA-

CITY           SKY/WX    TMP DP  RH WIND       PRES   REMARKS
YAP AIRPORT    CLOUDY    81  77  89 E9        29.75R
CHUUK AP       CLOUDY    82  79  89 NE9       29.79R HX  93
POHNPEI AP     NOT AVBL
POHNPEI WSO    CLOUDY    81  75  83 NE6       29.84R
KOSRAE AP      NOT AVBL

$$

PMZ181-181100-
REPUBLIC OF THE MARSHALL ISLANDS-

CITY           SKY/WX    TMP DP  RH WIND       PRES   REMARKS
KWAJALEIN AP   PTCLDY    82  72  69 NE20      29.82R
MAJURO AP      PTCLDY    84  75  74 NE18      29.79R HX  92
MAJURO WSO     PTCLDY    82  73  74 E15       29.78R

$$





USA.gov is the U.S. government's official web portal to all federal, state and local government web resources and services.